Stündliche Wetter Bolshie Kabany

Heute, 21 April, Mittwoch

Zeit Temperatur Niederschläge Wind Luftdruck Luftfeuchtigkeit
00:00 +1°C° 0 mm 6 m/S 761 mmHg 48%
01:00 +1°C° 0 mm 6 m/S 761 mmHg 48%
02:00 +1°C° 0 mm 6 m/S 761 mmHg 49%
03:00 0°C° 0 mm 7 m/S 761 mmHg 50%
04:00 0°C° 0 mm 7 m/S 760 mmHg 50%
05:00 0°C° 0 mm 8 m/S 760 mmHg 49%
06:00 0°C° 0 mm 8 m/S 759 mmHg 49%
07:00 +1°C° 0.1 mm 9 m/S 759 mmHg 50%
08:00 +1°C° 0.1 mm 9 m/S 759 mmHg 51%
09:00 +1°C° 0.1 mm 9 m/S 759 mmHg 52%
10:00 +1°C° 0.1 mm 9 m/S 759 mmHg 52%
11:00 +2°C° 0.1 mm 9 m/S 759 mmHg 52%
12:00 +2°C° 0.1 mm 9 m/S 759 mmHg 52%
13:00 +1°C° 0.3 mm 9 m/S 759 mmHg 58%
14:00 +1°C° 0.3 mm 9 m/S 758 mmHg 64%
15:00 0°C° 0.3 mm 9 m/S 758 mmHg 70%
16:00 -1°C° 1 mm 8 m/S 758 mmHg 79%
17:00 -1°C° 1 mm 8 m/S 758 mmHg 88%
18:00 -2°C° 1 mm 8 m/S 758 mmHg 97%
19:00 -2°C° 0.8 mm 8 m/S 758 mmHg 96%
20:00 -1°C° 0.8 mm 8 m/S 757 mmHg 96%
21:00 -1°C° 0.8 mm 8 m/S 757 mmHg 96%
22:00 -1°C° 0 mm 8 m/S 757 mmHg 95%
23:00 -1°C° 0 mm 7 m/S 757 mmHg 94%

Morgen, 22 April, Donnerstag

Zeit Temperatur Niederschläge Wind Luftdruck Luftfeuchtigkeit
00:00 0°C° 0 mm 7 m/S 757 mmHg 94%
01:00 0°C° 0 mm 7 m/S 757 mmHg 94%
02:00 0°C° 0 mm 7 m/S 757 mmHg 94%
03:00 0°C° 0 mm 7 m/S 757 mmHg 95%
04:00 +1°C° 0 mm 6 m/S 758 mmHg 95%
05:00 +1°C° 0 mm 5 m/S 758 mmHg 96%
06:00 +1°C° 0 mm 5 m/S 758 mmHg 96%
07:00 +2°C° 0 mm 5 m/S 758 mmHg 96%
08:00 +2°C° 0 mm 5 m/S 759 mmHg 96%
09:00 +2°C° 0 mm 5 m/S 759 mmHg 95%
10:00 +3°C° 0 mm 5 m/S 759 mmHg 93%
11:00 +4°C° 0 mm 6 m/S 759 mmHg 90%
12:00 +4°C° 0 mm 6 m/S 759 mmHg 88%
13:00 +5°C° 0 mm 6 m/S 759 mmHg 85%
14:00 +7°C° 0 mm 6 m/S 759 mmHg 81%
15:00 +8°C° 0 mm 5 m/S 759 mmHg 78%
16:00 +7°C° 0 mm 5 m/S 759 mmHg 80%
17:00 +7°C° 0 mm 5 m/S 759 mmHg 81%
18:00 +7°C° 0 mm 5 m/S 759 mmHg 83%
19:00 +6°C° 0 mm 5 m/S 759 mmHg 86%
20:00 +5°C° 0 mm 5 m/S 759 mmHg 89%
21:00 +3°C° 0 mm 5 m/S 759 mmHg 92%
22:00 +3°C° 0 mm 5 m/S 759 mmHg 93%
23:00 +4°C° 0 mm 4 m/S 759 mmHg 94%

übermorgen, 23 April, Freitag

Zeit Temperatur Niederschläge Wind Luftdruck Luftfeuchtigkeit
00:00 +3°C° 0 mm 4 m/S 759 mmHg 95%
01:00 +3°C° 0 mm 3 m/S 760 mmHg 95%
02:00 +3°C° 0 mm 3 m/S 760 mmHg 95%
03:00 +3°C° 0 mm 3 m/S 760 mmHg 95%
04:00 +3°C° 0 mm 3 m/S 760 mmHg 94%
05:00 +3°C° 0 mm 3 m/S 760 mmHg 93%
06:00 +4°C° 0 mm 3 m/S 760 mmHg 92%
07:00 +5°C° 0 mm 3 m/S 761 mmHg 87%
08:00 +7°C° 0 mm 3 m/S 761 mmHg 82%
09:00 +8°C° 0 mm 4 m/S 761 mmHg 77%
10:00 +10°C° 0 mm 3 m/S 761 mmHg 71%
11:00 +11°C° 0 mm 3 m/S 761 mmHg 65%
12:00 +12°C° 0 mm 3 m/S 760 mmHg 60%
13:00 +13°C° 0 mm 3 m/S 760 mmHg 59%
14:00 +13°C° 0 mm 3 m/S 760 mmHg 59%
15:00 +13°C° 0 mm 4 m/S 760 mmHg 58%
16:00 +12°C° 0 mm 4 m/S 760 mmHg 62%
17:00 +12°C° 0 mm 4 m/S 760 mmHg 66%
18:00 +11°C° 0 mm 4 m/S 760 mmHg 70%
19:00 +10°C° 0 mm 3 m/S 760 mmHg 74%
20:00 +9°C° 0 mm 3 m/S 759 mmHg 78%
21:00 +8°C° 0 mm 3 m/S 759 mmHg 82%
22:00 +7°C° 0 mm 2 m/S 759 mmHg 83%
23:00 +7°C° 0 mm 2 m/S 759 mmHg 84%

24 April, Samstag

Zeit Temperatur Niederschläge Wind Luftdruck Luftfeuchtigkeit
00:00 +6°C° 0 mm 2 m/S 758 mmHg 86%
01:00 +5°C° 0 mm 3 m/S 758 mmHg 87%
02:00 +5°C° 0 mm 3 m/S 757 mmHg 89%
03:00 +4°C° 0 mm 3 m/S 757 mmHg 91%
04:00 +4°C° 0 mm 3 m/S 757 mmHg 90%
05:00 +4°C° 0 mm 3 m/S 756 mmHg 90%
06:00 +4°C° 0 mm 4 m/S 756 mmHg 89%
07:00 +5°C° 0 mm 4 m/S 755 mmHg 85%
08:00 +6°C° 0 mm 4 m/S 755 mmHg 81%
09:00 +7°C° 0 mm 4 m/S 754 mmHg 77%
10:00 +7°C° 0 mm 4 m/S 754 mmHg 79%
11:00 +7°C° 0 mm 4 m/S 754 mmHg 81%
12:00 +7°C° 0 mm 4 m/S 753 mmHg 83%
13:00 +7°C° 0 mm 4 m/S 753 mmHg 85%
14:00 +7°C° 0 mm 3 m/S 753 mmHg 87%
15:00 +7°C° 0 mm 3 m/S 752 mmHg 88%
16:00 +7°C° 0 mm 3 m/S 752 mmHg 90%
17:00 +7°C° 0 mm 2 m/S 752 mmHg 91%
18:00 +7°C° 0 mm 2 m/S 752 mmHg 92%
19:00 +6°C° 0 mm 2 m/S 751 mmHg 93%
20:00 +6°C° 0 mm 2 m/S 751 mmHg 94%
21:00 +7°C° 0 mm 1 m/S 751 mmHg 94%
22:00 +7°C° 0 mm 1 m/S 750 mmHg 95%
23:00 +6°C° 0 mm 2 m/S 750 mmHg 95%

25 April, Sonntag

Zeit Temperatur Niederschläge Wind Luftdruck Luftfeuchtigkeit
00:00 +6°C° 0 mm 2 m/S 749 mmHg 96%
01:00 +5°C° 0 mm 2 m/S 749 mmHg 95%
02:00 +5°C° 0 mm 2 m/S 749 mmHg 95%
03:00 +4°C° 0 mm 3 m/S 748 mmHg 94%
04:00 +4°C° 0.3 mm 3 m/S 748 mmHg 94%
05:00 +4°C° 0.3 mm 3 m/S 748 mmHg 93%
06:00 +4°C° 0.3 mm 3 m/S 747 mmHg 93%
07:00 +4°C° 1.3 mm 4 m/S 747 mmHg 93%
08:00 +2°C° 1.3 mm 6 m/S 748 mmHg 93%
09:00 +2°C° 1.3 mm 7 m/S 748 mmHg 93%
10:00 +4°C° 0.2 mm 7 m/S 748 mmHg 82%
11:00 +6°C° 0.2 mm 7 m/S 749 mmHg 71%
12:00 +8°C° 0.2 mm 7 m/S 749 mmHg 61%
13:00 +9°C° 0.2 mm 7 m/S 750 mmHg 57%
14:00 +10°C° 0.2 mm 7 m/S 750 mmHg 53%
15:00 +10°C° 0.2 mm 7 m/S 750 mmHg 49%
16:00 +10°C° 0.2 mm 6 m/S 751 mmHg 52%
17:00 +9°C° 0.2 mm 6 m/S 751 mmHg 56%
18:00 +8°C° 0.2 mm 5 m/S 751 mmHg 59%
19:00 +7°C° 0.1 mm 4 m/S 752 mmHg 64%
20:00 +6°C° 0.1 mm 4 m/S 752 mmHg 69%
21:00 +4°C° 0.1 mm 3 m/S 753 mmHg 74%
22:00 +4°C° 0 mm 3 m/S 753 mmHg 75%
23:00 +3°C° 0 mm 3 m/S 753 mmHg 76%

26 April, Montag

Zeit Temperatur Niederschläge Wind Luftdruck Luftfeuchtigkeit
00:00 +3°C° 0 mm 3 m/S 753 mmHg 78%
01:00 +3°C° 0 mm 3 m/S 754 mmHg 78%
02:00 +2°C° 0 mm 3 m/S 754 mmHg 79%
03:00 +2°C° 0 mm 3 m/S 754 mmHg 80%
04:00 +3°C° 0 mm 2 m/S 754 mmHg 79%
05:00 +4°C° 0 mm 2 m/S 754 mmHg 78%
06:00 +4°C° 0 mm 2 m/S 754 mmHg 77%
07:00 +6°C° 0 mm 2 m/S 755 mmHg 69%
08:00 +7°C° 0 mm 2 m/S 755 mmHg 62%
09:00 +9°C° 0 mm 3 m/S 755 mmHg 55%
10:00 +9°C° 0 mm 3 m/S 755 mmHg 50%
11:00 +10°C° 0 mm 2 m/S 755 mmHg 46%
12:00 +12°C° 0 mm 2 m/S 755 mmHg 41%
13:00 +12°C° 0 mm 2 m/S 755 mmHg 40%
14:00 +12°C° 0 mm 2 m/S 754 mmHg 39%
15:00 +13°C° 0 mm 2 m/S 754 mmHg 38%
16:00 +12°C° 0 mm 2 m/S 754 mmHg 42%
17:00 +12°C° 0 mm 2 m/S 754 mmHg 47%
18:00 +10°C° 0 mm 2 m/S 754 mmHg 51%
19:00 +9°C° 0 mm 2 m/S 754 mmHg 53%
20:00 +8°C° 0 mm 2 m/S 753 mmHg 54%
21:00 +7°C° 0 mm 2 m/S 753 mmHg 56%
22:00 +7°C° 0 mm 2 m/S 752 mmHg 57%
23:00 +6°C° 0 mm 2 m/S 752 mmHg 58%
Mehr zeigen

Wir brauchen deine Erlaubnis

Meteoprog und unser Service Anbieter werden persönliche Daten aufbewahren, so wie Cookies, Geräte Bezeichnung oder ähnliche Technologien von deinem Gerät und Prozess, so wie Persönliche Daten Inhalte und Werbungen, genauso wie social Media und den Verkehr zu analysieren.

  • Aufbewahrung und/oder Zugang zu deiner Geräte Informationen.

    Cookies, Geräte Bezeichnung oder andere Informationen, können aufbewahrt oder Zugang zu deinem Gerät erhalten, für den Grund, der oben angegeben wird.

  • Personalisierte Werbung und Inhalte, Messungen, Einblick in das Publikum und Produkt Entwicklung.

    Werbungen und Inhalte können personalisiert werden, basierend auf ein Profil. Mehr Daten können besser personalisierte Werbungen und Inhalte hinzufügen. Werbung und Inhalte können gezeigt und gemessen werden. Einblicke über das Publikum, welche die Werbung gesehen haben und den Inhalt, können abgeleitet werden. So wie Daten können genutzt werden, um es zu verbessern oder die Benutzer Erfahrung zu verbessern das System und die Software.

Wenn du “Ich stimme zu” klickst, erlaubst du uns, die Cookies zu benutzen die Geräte Bezeichnung, den Web oder ähnliche Technologien zu benutzen. Deine Settings, können in deinem Gerät bei deinem Browser geändert werden.

Für den bestimmten Zweck, berechtigten Interessen beruhen darauf, mehr als auf den Inhalt. Du kannst mehr darüber in unseren Privaten und Cookie Politik lesen.